User: anonymous   Login
Location: Dentlein
(49.1477°N, 10.4231°E)
Time: 01:27:02
(UTC+00:00)
Language:

Resurs 1-4 Rocket - Orbit

View from above orbital plane
View from above orbital plane
View from above satellite
View from above satellite

Ground track
Ground track

The orbit data is extracted from the following two-line orbital elements,

1 25400U 98043G   24194.87575547  .00000138  00000-0  76772-4 0  9998
2 25400  98.7452 135.8766 0009404 336.2225  23.8519 14.25767569353027
Epoch (UTC): 12 July 2024 21:01:05
Eccentricity: 0.0009404
inclination: 98.7452°
perigee height: 799 km
apogee height: 812 km
right ascension of ascending node: 135.8766°
argument of perigee: 336.2225°
revolutions per day: 14.25767569
mean anomaly at epoch: 23.8519°
orbit number at epoch: 35302

The dashed part of the orbit path shows where the satellite is in the earth's shadow,  

DLR